Location: Burgwalden
(48.2830°N, 10.7576°E)
Time: 03:19:29
(UTC+00:00)

SL-08 ROCKET BODY - Pass Details

Date: 26 September 2023
Orbit: 896 x 962 km, 82.9° (Epoch: 04 December)

Event Time Altitude Azimuth Distance (km) Brightness Sun altitude
Exits shadow 03:21:37 - 192° (SSW) 3,104 6.8 -18.3°
Reaches altitude 10° 03:22:43 10° 193° (SSW) 2,692 6.5 -18.1°
Maximum altitude 03:28:54 78° 280° (W) 984 4.4 -17.1°
Drops below altitude 10° 03:35:04 10° 7° (N) 2,687 7.1 -16.2°
Sets 03:37:34 0° 9° (N) 3,629 7.8 -15.8°
